Location: Arbon
(43.0005°N, 0.7472°E)
Time: 18:52:33
(UTC+00:00)

USA 229 DEB - Pass Details

Date: 07 August 2020
Orbit: 971 x 1241 km, 63.4° (Epoch: 22 September)

Event Time Altitude Azimuth Distance (km) Brightness Sun altitude
Exits shadow 02:48:40 30° 197° (SSW) 1,716 4.3 -19.5°
Maximum altitude 02:52:03 70° 122° (ESE) 1,078 3.7 -19.1°
Drops below altitude 10° 02:58:47 10° 40° (NE) 2,892 7.2 -18.3°
Sets 03:01:31 0° 38° (NE) 3,891 8.3 -17.9°
